星链-37628(STARLINK-37628)

导读

STARLINK-37628(NORAD ID 69823)是SpaceX星链星座的在轨通信卫星,属于第二代星链(Gen2)组网批次,部署于约480公里高度的近地轨道,轨道倾角约53°,符合SpaceX 2026年起下调主工作轨道以降低碰撞风险、缩短失效卫星再入周期的策略。该卫星由猎鹰9号火箭发射入轨,承担低时延宽带互联网传输任务,支持包括偏远地区、海事航空及直连手机(Direct-to-Cell)在内的通信服务,是当前超1万颗在轨运营星链卫星的组成部分,持续为全球超600万活跃用户提供高速网络接入。

Basic Information
目录编号:
69823
目录名称:
STARLINK-37628
国际标识:
2026-154E
轨道中心:
EARTH
卫星名称:
星链-37628
卫星全名:
星链-37628(STARLINK-37628)
卫星状态:
在轨 (已飞行61 天)
发射日期:
2026-07-05 UTC
国别 :
美国 (US)
星等 :
--
Orbit Information
数据来源 国际轨道数据
星历时间: 2026-09-04T05:25:24+0800
10小时前
查看轨道信息
半长轴: 6840.835km
偏心率: 0.0001324
轨道倾角: 53.161°
近地点辐角 103.316°
升交点赤经 49.697°
平近点角 256.799°
近地点: 461.792km
远地点: 463.604km
周期: 93.848分钟
每日圈数: 15.344018
Detailed Information
固有亮度:
5
最大亮度:
2.5
卫星平台:
Starlink V1.0
覆盖范围:
全球
运营商:
太空探索技术公司
运营商所在国:
美国
制造商(研发单位):
太空探索技术公司
制造商所在国:
美国
使用方式:
暂无
Satellite Introduction
Starlink 计划是 SpaceX 推出的全球卫星互联网项目,通过发射低轨道卫星,为全球尤其是偏远地区提供高速、低延迟的互联网服务。自 2019 年起,Starlink 已部署数千颗卫星,旨在缩小全球数字鸿沟,推动互联网普及。该项目还为军事、航空等行业提供通信支持,带来广泛经济效益。
2D Orbit Map
3D Orbit Map
Orbit Altitude Analysis Chart
Orbit Inclination Analysis Chart
Orbit Comprehensive Analysis Chart
View Comprehensive Chart
Conjunction Data List
Event ID Objects TCA Miss Dist (km) Collision Risk Probability Collision Risk Index (CRI) Action
CDM_260904-162705-248606-982321
2026-09-04T
16:27:23+0000
0.492 km
远距离
1.450833E-4 高风险 0.78
CDM_260904-044305-248606-982322
2026-09-04T
04:43:57+0000
0.917 km
远距离
2.315645E-5 中风险 0.62
CDM_260905-151005-299606-982321
2026-09-05T
15:10:12+0000
1.485 km
极远距离
3.341392E-6 低风险 0.45
CDM_260903-131604-777106-982321
2026-09-03T
13:16:29+0000
1.569 km
极远距离
2.700336E-6 低风险 0.44
CDM_260904-031005-248606-982323
2026-09-04T
03:10:09+0000
1.773 km
极远距离
2.619768E-6 低风险 0.43
CDM_260905-085304-869606-982321
2026-09-05T
08:53:10+0000
2.257 km
极远距离
1.374833E-6 低风险 0.38
CDM_260903-022805-382306-982321
2026-09-03T
02:28:15+0000
2.852 km
极远距离
1.175129E-6 低风险 0.36
CDM_260903-044805-382306-982321
2026-09-03T
04:48:54+0000
2.885 km
极远距离
1.158896E-6 低风险 0.36
CDM_260904-145305-248606-982323
2026-09-04T
14:53:36+0000
2.632 km
极远距离
1.105467E-6 低风险 0.36
CDM_260905-164405-299606-982321
2026-09-05T
16:44:00+0000
2.661 km
极远距离
8.478859E-7 极低风险 0.34